Voltar ao catálogo

STARLINK-35001

AtivoComunicaçõesSSO
NORAD 65280·PAYLOAD·🇺🇸 United States

Lançado Aug 22, 2025 de Vandenberg Space Force Base

Loading…

Próximas Passagens (próximas 24 horas)

TLE

AtualizadoSource: CelesTrak SupGP

Época: Sep 15, 2026, 03:00 UTC

1 65280C 25184H   26258.12548611  .00025636  00000+0  79578-3 0  2580
2 65280  97.2834 306.0982 0001040  87.1168 344.5818 15.33427985    11

Acompanhe STARLINK-35001 em tempo real com AllMySat

Download on the App Store